FW1036 Weather Reports


Display with metric or nautical units.
time (UTC)temp
F
wind
direction
speed
MPH
gust
MPH
rain 1hr
in
rain 24hr
in
rain mn
in
humidity
%
barometer
mb
20260902174507 87 252 3.0 8.0 0.00 0.00 0.00 69 1009.9
20260902173003 87 196 1.0 10.0 0.00 0.00 0.00 72 1010.4
20260902171502 86 205 2.0 8.0 0.00 0.00 0.00 68 1010.8
20260902170059 86 144 3.0 8.0 0.00 0.00 0.00 71 1011.0
20260902164559 85 288 1.0 6.0 0.00 0.00 0.00 72 1011.5
20260902163055 84 276 4.0 9.0 0.00 0.00 0.00 70 1011.7
20260902161557 85 215 3.0 8.0 0.00 0.00 0.00 71 1011.8
20260902160055 84 311 5.0 10.0 0.00 0.00 0.00 73 1011.9
20260902154604 83 299 3.0 10.0 0.00 0.00 0.00 76 1012.1
20260902153042 81 265 2.0 9.0 0.00 0.00 0.00 79 1012.0
20260902151540 82 276 2.0 8.0 0.00 0.00 0.00 78 1011.8
20260902150037 83 308 3.0 9.0 0.00 0.00 0.00 78 1011.5
20260902144534 82 260 2.0 8.0 0.00 0.00 0.00 79 1011.4
20260902143031 82 265 1.0 8.0 0.00 0.00 0.00 79 1011.4
20260902141527 81 296 1.0 6.0 0.00 0.00 0.00 81 1011.3
20260902140023 80 230 0.0 3.0 0.00 0.00 0.00 84 1011.0
20260902134519 78 262 0.0 4.0 0.00 0.00 0.00 87 1011.3
20260902133016 77 250 1.0 5.0 0.00 0.00 0.00 88 1011.4
20260902131512 75 257 0.0 3.0 0.00 0.00 0.00 90 1011.4
20260902130008 75 252 1.0 3.0 0.00 0.00 0.00 90 1011.3
20260902124509 74 243 0.0 4.0 0.00 0.00 0.00 90 1011.1
20260902123006 74 165 0.0 4.0 0.00 0.00 0.00 91 1011.0
20260902121504 73 278 0.0 2.0 0.00 0.00 0.00 91 1010.8
20260902120002 73 281 0.0 1.0 0.00 0.00 0.00 91 1010.9
20260902114619 73 266 0.0 0.0 0.00 0.00 0.00 92 1010.9
20260902113107 72 266 0.0 0.0 0.00 0.00 0.00 92 1010.9
20260902111601 72 266 0.0 0.0 0.00 0.00 0.00 92 1011.0
20260902110055 71 266 0.0 0.0 0.00 0.00 0.00 92 1011.2
20260902104556 71 266 0.0 2.0 0.00 0.00 0.00 92 1011.0
20260902103106 71 211 0.0 1.0 0.00 0.00 0.00 92 1010.9
20260902101554 71 211 0.0 1.0 0.00 0.00 0.00 92 1010.9
20260902100119 72 211 0.0 0.0 0.00 0.00 0.00 92 1010.7
20260902094611 72 211 0.0 1.0 0.00 0.00 0.00 92 1010.8
20260902093109 72 211 0.0 0.0 0.00 0.00 0.00 92 1010.9
20260902091549 72 211 0.0 1.0 0.00 0.00 0.00 92 1010.9
20260902090049 73 211 0.0 0.0 0.00 0.00 0.00 92 1010.8
20260902084547 73 211 0.0 0.0 0.00 0.00 0.00 92 1010.9
20260902083046 73 211 0.0 0.0 0.00 0.00 0.00 91 1010.9
20260902081548 73 211 0.0 0.0 0.00 0.00 0.00 91 1010.7
20260902080045 73 211 0.0 1.0 0.00 0.00 0.00 92 1010.8
20260902074544 73 223 0.0 2.0 0.00 0.00 0.00 92 1010.8
20260902073048 73 242 0.0 2.0 0.00 0.00 0.00 92 1010.8
20260902071546 73 241 0.0 1.0 0.00 0.00 0.00 92 1010.7
20260902070041 73 226 0.0 4.0 0.00 0.00 0.00 92 1010.7
20260902064542 73 225 0.0 3.0 0.00 0.00 0.00 91 1010.9
20260902063037 74 204 1.0 4.0 0.00 0.00 0.00 91 1011.0
20260902061544 74 227 1.0 2.0 0.00 0.00 0.00 91 1011.0
20260902060045 74 227 1.0 3.0 0.00 0.00 0.00 91 1011.1
20260902054540 74 234 0.0 0.0 0.00 0.00 0.00 91 1011.3
20260902053034 74 234 0.0 1.0 0.00 0.00 0.00 91 1011.3
20260902051533 74 234 0.0 1.0 0.00 0.00 0.00 91 1011.5
20260902050038 74 234 1.0 3.0 0.00 0.00 0.00 91 1011.2
20260902044524 74 254 0.0 2.0 0.00 0.00 0.00 91 1011.2
20260902043020 74 224 0.0 2.0 0.00 0.00 0.00 91 1011.2
20260902041522 74 217 0.0 3.0 0.00 0.00 0.00 91 1011.3
20260902040014 74 225 0.0 4.0 0.00 0.00 0.00 92 1011.3
20260902034510 74 198 2.0 4.0 0.00 0.00 0.00 92 1011.0
20260902033009 74 229 1.0 4.0 0.00 0.00 0.00 92 1011.0
20260902031508 73 134 0.0 0.0 0.00 0.00 0.00 92 1011.2
20260902030009 73 134 0.0 0.0 0.00 0.00 0.00 91 1011.2
20260902024508 74 134 0.0 0.0 0.00 0.00 0.00 91 1011.2
20260902023007 74 134 0.0 2.0 0.00 0.00 0.00 91 1011.2
20260902021513 74 134 0.0 3.0 0.00 0.00 0.00 90 1011.2
20260902020006 74 134 2.0 4.0 0.00 0.00 0.00 90 1011.2
20260902014506 74 138 0.0 1.0 0.00 0.00 0.00 90 1011.3
20260902013005 75 134 2.0 4.0 0.00 0.00 0.00 89 1011.3
20260902011505 75 152 1.0 3.0 0.00 0.00 0.00 89 1011.1
20260902010012 75 103 1.0 4.0 0.00 0.00 0.00 89 1010.8
20260902004507 76 103 0.0 4.0 0.00 0.00 0.00 88 1010.8
20260902003003 76 107 1.0 3.0 0.00 0.00 0.00 88 1010.8
20260902001503 76 119 2.0 4.0 0.00 0.00 0.00 87 1010.7
20260902000004 78 127 2.0 4.0 0.00 0.00 0.00 85 1010.9
20260901234502 78 109 2.0 6.0 0.00 0.00 0.00 85 1010.9
20260901233001 79 123 3.0 7.0 0.00 0.00 0.00 84 1010.9
20260901231501 79 123 4.0 9.0 0.00 0.00 0.00 82 1011.0
20260901230114 80 98 6.0 10.0 0.00 0.00 0.00 81 1011.2
20260901224602 81 98 5.0 9.0 0.00 0.00 0.00 81 1011.1
20260901223101 82 133 4.0 8.0 0.00 0.00 0.00 79 1010.9
20260901221601 82 80 3.0 8.0 0.00 0.00 0.00 79 1011.1
20260901220057 82 125 4.0 9.0 0.00 0.00 0.00 80 1011.0
20260901214605 82 137 4.0 9.0 0.00 0.00 0.00 79 1010.9
20260901213134 82 123 6.0 10.0 0.00 0.00 0.00 78 1010.9
20260901211554 83 124 5.0 10.0 0.00 0.00 0.00 78 1010.9
20260901210055 84 150 5.0 9.0 0.00 0.00 0.00 77 1011.0
20260901204553 84 117 3.0 8.0 0.00 0.00 0.00 77 1011.1
20260901203116 83 96 2.0 7.0 0.00 0.00 0.00 79 1011.2
20260901201558 83 136 3.0 7.0 0.00 0.00 0.00 78 1011.3
20260901200052 82 92 4.0 8.0 0.00 0.00 0.00 79 1011.2
20260901194600 84 144 4.0 9.0 0.00 0.01 0.00 78 1011.3
20260901193051 85 65 6.0 9.0 0.00 0.01 0.00 75 1011.3
20260901191609 85 289 0.0 3.0 0.00 0.01 0.00 73 1011.2
20260901190050 85 269 2.0 5.0 0.00 0.01 0.00 72 1011.6
20260901184549 87 207 1.0 4.0 0.00 0.01 0.00 70 1011.8
20260901183053 86 287 1.0 4.0 0.00 0.01 0.00 72 1011.8
20260901181544 86 295 0.0 5.0 0.00 0.01 0.00 75 1011.9
20260901180044 84 200 0.0 6.0 0.00 0.01 0.00 78 1012.1
20260901174543 84 244 2.0 6.0 0.00 0.06 0.00 77 1012.0